Location: Jarosław
(50.0191°N, 22.6835°E)
Time: 22:36:28
(UTC+01:00)

ISS - Pass Details

Date: 01 February 2019
Orbit: 403 x 411 km, 51.6° (Epoch: 18 February)

Event Time Altitude Azimuth Distance (km) Brightness Sun altitude
Rises 18:56:58 0° 285° (WNW) 2,340 1.3 -24.8°
Reaches altitude 10° 18:59:03 10° 286° (WNW) 1,479 0.0 -25.1°
Enters shadow 19:00:51 29° 286° (WNW) 777 -1.8 -25.4°
